DW6198 Weather Reports


time (UTC)temp
F
wind
direction
speed
knots
gust
knots
rain 1hr
in
rain 24hr
in
rain mn
in
humidity
%
barometer
mb
20260508013027 46 76 0.0 0.0 0.00 0.00 0.00 93 1015.5
20260508011530 46 76 0.0 0.0 0.00 0.00 0.00 93 1015.4
20260508010029 46 76 0.0 0.0 0.00 0.00 0.00 93 1015.4
20260508004534 46 76 0.0 0.0 0.00 0.00 0.00 93 1015.3
20260508003021 46 76 0.0 0.0 0.00 0.00 0.00 93 1015.3
20260508001527 47 76 0.0 0.0 0.00 0.00 0.00 93 1015.1
20260508000019 47 76 0.0 0.0 0.00 0.00 0.00 93 1015.2
20260507234531 47 76 0.0 0.0 0.00 0.00 0.00 93 1015.3
20260507233026 47 76 0.0 0.0 0.00 0.00 0.00 92 1015.4
20260507231522 47 76 0.0 0.0 0.00 0.00 0.00 92 1015.5
20260507230021 47 76 0.0 0.9 0.00 0.00 0.00 92 1015.5
20260507224523 47 76 0.0 0.0 0.00 0.00 0.00 92 1015.4
20260507223019 47 76 0.0 0.0 0.00 0.00 0.00 92 1015.3
20260507221519 47 76 0.0 0.0 0.00 0.00 0.00 92 1015.3
20260507220014 47 76 0.0 0.0 0.00 0.00 0.00 92 1015.4
20260507214520 47 76 0.0 0.0 0.00 0.00 0.00 92 1015.3
20260507213011 47 76 0.0 0.9 0.00 0.00 0.00 92 1015.2
20260507211510 46 76 0.0 0.9 0.00 0.00 0.00 91 1015.0
20260507210007 46 76 0.0 0.0 0.00 0.00 0.00 89 1014.9
20260507204505 47 76 0.0 0.0 0.00 0.00 0.00 89 1014.7
20260507203006 47 76 0.0 0.0 0.00 0.00 0.00 88 1014.6
20260507201600 48 76 0.0 0.0 0.00 0.00 0.00 87 1014.3
20260507200056 49 75 0.0 1.7 0.00 0.00 0.00 84 1014.0
20260507194554 50 143 0.0 0.0 0.00 0.00 0.00 83 1013.7
20260507193058 50 143 0.0 0.0 0.00 0.00 0.00 82 1013.7
20260507191554 51 143 0.0 0.0 0.00 0.00 0.00 79 1013.7
20260507190052 52 143 0.0 0.0 0.00 0.00 0.00 79 1013.4
20260507184550 53 143 0.0 0.0 0.00 0.00 0.00 78 1013.3
20260507183048 53 143 0.0 0.0 0.00 0.00 0.00 76 1013.1
20260507181547 54 143 0.0 0.0 0.00 0.00 0.00 75 1013.0
20260507180049 54 143 0.0 0.0 0.00 0.00 0.00 74 1012.9
20260507174604 55 143 0.0 0.0 0.00 0.00 0.00 73 1012.7
20260507173043 56 143 0.0 0.0 0.00 0.00 0.00 71 1012.6
20260507171559 56 147 0.0 0.0 0.00 0.00 0.00 70 1012.5
20260507170040 58 122 0.0 0.9 0.00 0.00 0.00 68 1012.4
20260507164539 59 146 0.0 0.9 0.00 0.00 0.00 66 1012.2
20260507163037 59 81 0.0 1.7 0.00 0.00 0.00 65 1012.1
20260507161539 60 103 0.0 0.9 0.00 0.00 0.00 63 1011.9
20260507160057 60 99 0.0 0.0 0.00 0.00 0.00 63 1011.8
20260507154536 61 99 0.0 0.9 0.00 0.00 0.00 61 1011.6
20260507153033 61 97 0.0 1.7 0.00 0.00 0.00 59 1011.6
20260507151533 61 97 0.0 1.7 0.00 0.00 0.00 58 1011.7
20260507150037 62 63 0.9 2.6 0.00 0.00 0.00 54 1011.5
20260507144531 62 85 1.7 3.5 0.00 0.00 0.00 55 1011.5
20260507143031 62 134 0.0 0.9 0.00 0.00 0.00 57 1011.5
20260507141533 62 162 0.0 1.7 0.00 0.00 0.00 59 1011.5
20260507140040 62 316 0.0 1.7 0.00 0.00 0.00 59 1011.5
20260507134530 62 84 0.0 4.3 0.00 0.00 0.00 59 1011.5
20260507133032 64 342 1.7 5.2 0.00 0.00 0.00 56 1011.5
20260507131551 63 313 0.0 4.3 0.00 0.00 0.00 57 1011.5
20260507130027 62 60 0.9 4.3 0.00 0.00 0.00 60 1011.8
20260507124527 62 73 0.9 4.3 0.00 0.00 0.00 59 1011.8
20260507123030 63 86 0.0 3.5 0.00 0.00 0.00 59 1011.6
20260507121524 62 59 0.9 6.1 0.00 0.00 0.00 59 1011.5
20260507120030 64 24 0.9 5.2 0.00 0.00 0.00 59 1011.6
20260507114522 63 78 0.0 3.5 0.00 0.00 0.00 62 1011.8
20260507113054 63 75 1.7 4.3 0.00 0.00 0.00 60 1011.8
20260507111518 63 73 0.9 3.5 0.00 0.00 0.00 65 1011.7
20260507110016 59 84 0.0 2.6 0.00 0.00 0.00 68 1011.7
20260507104518 59 77 0.0 3.5 0.00 0.00 0.00 70 1011.6
20260507103013 59 189 0.0 2.6 0.00 0.00 0.00 70 1011.5
20260507101520 59 122 0.0 1.7 0.00 0.00 0.00 71 1011.7
20260507100027 58 89 0.0 2.6 0.00 0.00 0.00 73 1011.5
20260507094508 59 84 0.0 2.6 0.00 0.00 0.00 71 1011.3
20260507093005 57 86 0.0 1.7 0.00 0.00 0.00 77 1011.2
20260507091503 58 86 0.0 3.5 0.00 0.00 0.00 78 1011.1
20260507090006 57 64 0.9 3.5 0.00 0.00 0.00 77 1011.0
20260507084603 58 45 0.9 2.6 0.00 0.00 0.00 77 1010.8
20260507083059 56 70 0.0 3.5 0.00 0.00 0.00 82 1010.8
20260507081559 55 84 0.0 3.5 0.00 0.00 0.00 83 1010.7
20260507080058 54 86 0.0 2.6 0.00 0.00 0.00 88 1010.8
20260507074556 52 81 0.0 3.5 0.00 0.00 0.00 90 1010.7
20260507073058 51 115 0.0 0.9 0.00 0.00 0.00 91 1010.5
20260507071553 51 75 0.0 1.7 0.00 0.00 0.00 93 1010.4
20260507070105 51 138 0.0 0.9 0.00 0.00 0.00 93 1010.1
20260507064553 51 77 0.0 1.7 0.00 0.00 0.00 93 1010.0
20260507063054 51 77 0.0 0.9 0.00 0.00 0.00 93 1010.0
20260507061548 51 83 0.0 1.7 0.00 0.00 0.00 93 1009.9
20260507060048 51 84 0.0 1.7 0.00 0.00 0.00 93 1009.7
20260507054545 50 84 0.0 0.9 0.00 0.00 0.00 93 1009.5
20260507053044 50 84 0.0 0.0 0.00 0.00 0.00 93 1009.3
20260507051542 50 84 0.0 0.0 0.00 0.00 0.00 94 1009.2
20260507044549 50 83 0.0 0.0 0.00 0.00 0.00 94 1008.8
20260507043037 50 83 0.0 0.0 0.00 0.00 0.00 94 1008.5
20260507041534 49 84 0.0 0.0 0.00 0.00 0.00 93 1008.1
20260507040033 49 83 0.0 0.0 0.00 0.00 0.00 93 1007.8
20260507034536 49 83 0.0 0.0 0.00 0.00 0.00 92 1007.7
20260507033036 50 83 0.0 0.0 0.00 0.00 0.00 92 1007.7
20260507031531 50 83 0.0 0.0 0.00 0.00 0.00 91 1007.6
20260507030026 51 83 0.0 0.0 0.00 0.00 0.00 91 1007.5
20260507024521 51 83 0.0 0.0 0.00 0.00 0.00 90 1007.3
20260507023019 52 83 0.0 0.0 0.00 0.00 0.00 89 1007.2
20260507021526 53 83 0.0 0.9 0.00 0.00 0.00 87 1007.3
20260507020021 53 83 0.0 0.9 0.00 0.00 0.00 86 1006.9
20260507014512 54 83 0.0 0.9 0.00 0.00 0.00 85 1007.0